Location: Sevilla
(37.3933°N, 5.9839°W)
Time: 11:49:30
(UTC+02:00)

S-56A Canister/Altair - Pass Details

Date: 29 June 2024
Orbit: 638 x 2488 km, 38.9° (Epoch: 14 July)

Event Time Altitude Azimuth Distance (km) Brightness Sun altitude
Rises 04:11:21 0° 286° (WNW) 5,184 11.7 -24.7°
Reaches altitude 10° 04:14:53 10° 277° (W) 4,425 11.2 -24.3°
Maximum altitude 04:25:37 34° 220° (SW) 3,391 10.2 -23.3°
Drops below altitude 10° 04:38:07 10° 163° (SSE) 5,136 11.3 -22.1°
Sets 04:42:41 0° 155° (SSE) 6,101 11.8 -21.6°
